Location: Unspecified
(0.0000°N, 0.0000°E)
Time: 05:36:27
(UTC+00:00)

Tiros 1 - Pass Details

Date: 01 October 2020
Orbit: 630 x 663 km, 48.4° (Epoch: 28 October)

Event Time Altitude Azimuth Distance (km) Brightness Sun altitude
Rises 09:16:17 0° 190° (S) 2,913 10.5 51.6°
Reaches altitude 10° 09:19:25 10° 168° (SSE) 2,004 10.0 52.3°
Maximum altitude 09:22:14 16° 130° (SE) 1,648 10.0 53.0°
Drops below altitude 10° 09:25:03 10° 92° (E) 2,005 10.5 53.7°
Sets 09:28:10 0° 70° (ENE) 2,915 11.0 54.5°
